Regional Weather Roundup
Issued by NWS

Home | Current Version | Previous Version | Graphics & Text | Print | Product List | Glossary On
Versions: 1 2 3 4 5 6 7 8 9 10 11 12 13 14 15 16 17 18 19 20 21 22 23 24 25 26 27 28 29 30 31 32 33 34 35 36 37 38 39 40 41 42 43 44 45 46 47 48 49 50
000
ASUS43 KIND 101309
RWRIN

WEATHER ROUNDUP FOR INDIANA
NATIONAL WEATHER SERVICE INDIANAPOLIS IN
800 AM EST SAT DEC 10 2016

NOTE: "FAIR" INDICATES FEW OR NO CLOUDS BELOW 12,000 FEET WITH NO
SIGNIFICANT WEATHER AND/OR OBSTRUCTIONS TO VISIBILITY.

* - STATION DOES NOT REPORT WEATHER SUCH AS PRECIPITATION OR FOG.

+ - STATION NOT QUALITY CONTROLLED BY THE NATIONAL WEATHER SERVICE.
    USE DATA WITH CAUTION...ESPECIALLY DEWPOINT AND RELATIVE
    HUMIDITY OBSERVATIONS.

INZ001>003-010>013-019-020-101400-
NORTHWEST INDIANA

CITY           SKY/WX    TMP DP  RH WIND       PRES   REMARKS
GARY /AIRPORT/ MOCLDY    21  16  79 W10       30.52F WCI  10
KNOX *+        CLOUDY    21   1  42 W7        30.52S WCI  13
LA PORTE +     CLOUDY    19  14  79 SW9       30.50F WCI   9
MICHIGAN CITY+ LGT SNOW  21  16  79 SW7       30.51S WCI  13
MONTICELLO +   CLOUDY    22  12  64 W6        30.52F WCI  15
RENSSELAER +     N/A     23  19  86 W8        30.52F WCI  14
VALPARAISO     CLOUDY    21  14  74 SW8       30.51S WCI  11

$$

LMZ046-743>745-101400-
SOUTHERN LAKE MICHIGAN

STATION/POSITION TIME  TEMP    WIND        PRES    WAVE
                       AIR SEA DIR/SP/G            HT
                 (UTC) (F)     (DEG/KT/KT) (MB)    (FT)

$$

INZ004-005-014>016-021>024-101400-
NORTH CENTRAL INDIANA

CITY           SKY/WX    TMP DP  RH WIND       PRES   REMARKS
ELKHART        CLOUDY    19  12  73 SW7       30.48  WCI  10
GOSHEN         CLOUDY    21  11  65 W12       30.49S WCI   9
LOGANSPORT +   CLOUDY    23  16  74 W6        30.52F WCI  16
PERU/GRISSOM   CLOUDY    23  15  72 W8        30.49F WCI  14
ROCHESTER +    CLOUDY    23  19  86 CALM      30.51F
SOUTH BEND     CLOUDY    18  12  79 SW12      30.49S WCI   5
WARSAW +       CLOUDY    21  12  68 W8        30.50F WCI  12

$$

INZ006>009-017-018-025>027-101400-
NORTHEAST INDIANA

CITY           SKY/WX    TMP DP  RH WIND       PRES   REMARKS
ANGOLA *+      CLOUDY    19  14  79 W7        30.45F WCI  10
AUBURN +       CLOUDY    23  14  68 W7        30.49S WCI  15
FORT WAYNE     CLOUDY    20  14  77 W7        30.51S WCI  11
HUNTINGTON +   CLOUDY    20  14  77 W3        30.52R
KENDALLVILLE + CLOUDY    21  13  71 W10       30.47S WCI  10

$$

INZ028-029-035-036-043>045-051>053-101400-
WEST CENTRAL INDIANA

CITY           SKY/WX    TMP DP  RH WIND       PRES   REMARKS
CRAWFORDSVL +  CLOUDY    19  16  88 SW3       30.54S
GREENCASTLE +  CLOUDY    21  19  93 CALM      30.55S
LAFAYETTE      CLOUDY    21  17  84 SW5       30.54F WCI  15
TERRE HAUTE    CLOUDY    22  15  75 CALM      30.57F

$$

INZ030>032-037>040-046>048-054>057-064-065-101400-
CENTRAL INDIANA

CITY           SKY/WX    TMP DP  RH WIND       PRES   REMARKS
CP ATTERBURY + CLOUDY    25  19  80 W3        30.57R
COLUMBUS       CLOUDY    23  19  86 SW6       30.57S WCI  16
FISHERS *+     CLOUDY    21  18  86 W3        30.54S
FRANKFORT +    CLOUDY    24  19  80 W9        30.54S WCI  14
GREENWOOD *+   CLOUDY    23  16  75 W8        30.55S WCI  14
INDIANAPOLIS   CLOUDY    21  15  78 W8        30.54S WCI  11
-EAGLE CREEK   CLOUDY    22  14  71 SW5       30.54S WCI  16
KOKOMO +       CLOUDY    23  17  78 W9        30.52F WCI  13
MARION +       CLOUDY    22  17  79 W8        30.52F WCI  13
MT COMFORT *+  CLOUDY    21  16  79 W7        30.54R WCI  13
SHELBYVILLE    CLOUDY    23  15  71 W8        30.54S WCI  14
ZIONSVILLE +   CLOUDY    21  17  84 W5        30.53S WCI  14

$$

INZ033-034-041-042-049-050-058-059-101400-
EAST CENTRAL INDIANA

CITY           SKY/WX    TMP DP  RH WIND       PRES   REMARKS
MUNCIE         CLOUDY    24  16  71 W6        30.51F WCI  17

$$

INZ060-061-067>069-081>083-085>088-101400-
SOUTHWEST INDIANA

CITY           SKY/WX    TMP DP  RH WIND       PRES   REMARKS
EVANSVILLE     CLOUDY    24  17  74 CALM      30.61S
HUNTINGBURG *+ CLOUDY    19  17  92 S3        30.59F
WASHINGTON +   CLOUDY    23  20  87 CALM      30.58F

$$

INZ062-063-066-070>080-084-089>092-101400-
SOUTH CENTRAL AND SOUTHEAST INDIANA

CITY           SKY/WX    TMP DP  RH WIND       PRES   REMARKS
BLOOMINGTON    CLOUDY    21  17  84 SW3       30.56R
MADISON *+     CLOUDY    21  18  86 CALM      30.59S
NORTH VERNON + CLOUDY    23  23 100 SW5       30.57R WCI  17
SEYMOUR +      CLOUDY    21  18  86 CALM      30.58F

$$





USA.gov is the U.S. government's official web portal to all federal, state and local government web resources and services.